Weather History for Beckley, WV

Change the Weather History Date:

Thursday, November 28, 2013

  Actual Average Record
Temperature  
Mean Temperature 25 °F 39 °F  
Max Temperature 31 °F 48 °F 72 °F (1909)
Min Temperature 18 °F 31 °F 6 °F (1938)
Degree Days  
Heating Degree Days 40 26  
Month to date heating degree days 681 581  
Since 1 July heating degree days 1114 1087  
Cooling Degree Days 0 0  
Month to date cooling degree days 0 0  
Year to date cooling degree days 615 556  
Moisture  
Dew Point 14 °F    
Average Humidity 65    
Maximum Humidity 80    
Minimum Humidity 50    
Precipitation  
Precipitation 0.01 in 0.10 in 1.45 in (1921)
Month to date precipitation 3.28 2.74  
Year to date precipitation 36.48 37.98  
Snow  
Snow 0.10 in - - ()
Month to date snowfall 5.5  
Since 1 September snowfall 5.5  
Snow Depth 5.00 in    
Sea Level Pressure  
Sea Level Pressure 30.38 in    
Wind  
Wind Speed 5 mph (West)    
Max Wind Speed 16 mph    
Max Gust Speed 22 mph    
Visibility 9 miles    
Events Snow    
T = Trace of Precipitation, MM = Missing Value Source: NWS Daily Summary

Daily Weather History Graph

Daily Weather History Graph

Search for Another Location

Airport:

Trip Planner

Search our weather history database for the weather conditions in past years. The results will help you decide how hot, cold, wet, or windy it might be!

Date:

Astronomy

Nov. 28, 2013 Rise Set
Actual Time 7:18 AM EST 5:06 PM EST
Civil Twilight 6:49 AM EST 5:35 PM EST
Nautical Twilight 6:17 AM EST 6:07 PM EST
Astronomical Twilight 5:45 AM EST 6:39 PM EST
Moon 2:24 AM EST 2:10 PM EST
Length of Visible Light 10h 45m
Length of Day
9h 48m
Waning Crescent, 22% of the Moon is Illuminated
Nov 28
Waning Crescent
Dec 2
New
Dec 9
First Quarter
Dec 17
Full
Dec 25
Last Quarter

Hourly Weather History & Observations

Time (EST) Temp. Windchill Dew Point Humidity Pressure Visibility Wind Dir Wind Speed Gust Speed Precip Events Conditions
12:29 AM 19.4 °F 8.6 °F 15.8 °F 86% 30.14 in 3.0 mi WNW 9.2 mph - 0.01 in Snow Light Snow
12:43 AM 19.4 °F 7.2 °F 14.0 °F 80% 30.15 in 9.0 mi NW 11.5 mph - 0.01 in   Overcast
12:51 AM 19.0 °F 6.8 °F 14.0 °F 81% 30.29 in 9.0 mi NW 11.5 mph - 0.01 in Snow Light Snow
12:58 AM 19.4 °F 7.2 °F 12.2 °F 74% 30.15 in 8.0 mi NW 11.5 mph - 0.00 in Snow Light Snow
1:51 AM 19.0 °F 7.5 °F 10.9 °F 71% 30.29 in 10.0 mi NW 10.4 mph - 0.00 in   Overcast
2:51 AM 19.0 °F 6.8 °F 12.9 °F 77% 30.32 in 6.0 mi WNW 11.5 mph - 0.00 in Snow Light Snow
3:51 AM 19.0 °F 9.0 °F 12.9 °F 77% 30.34 in 4.0 mi NW 8.1 mph - 0.00 in Snow Light Snow
4:51 AM 19.0 °F 10.0 °F 12.9 °F 77% 30.36 in 10.0 mi NW 6.9 mph - 0.00 in   Overcast
5:51 AM 18.0 °F 6.1 °F 10.9 °F 74% 30.38 in 10.0 mi NNW 10.4 mph - N/A   Overcast
6:51 AM 18.0 °F 9.8 °F 12.0 °F 78% 30.42 in 10.0 mi NW 5.8 mph - N/A   Overcast
7:51 AM 18.0 °F 9.8 °F 12.0 °F 78% 30.44 in 10.0 mi West 5.8 mph - N/A   Overcast
8:51 AM 19.0 °F 12.3 °F 10.9 °F 71% 30.47 in 10.0 mi WNW 4.6 mph - N/A   Overcast
9:51 AM 19.0 °F 12.3 °F 12.0 °F 74% 30.48 in 10.0 mi West 4.6 mph - N/A   Mostly Cloudy
10:16 AM 21.2 °F 13.6 °F 12.2 °F 68% 30.34 in 10.0 mi WNW 5.8 mph - N/A   Scattered Clouds
10:51 AM 21.9 °F 15.7 °F 12.9 °F 68% 30.48 in 10.0 mi West 4.6 mph - N/A   Partly Cloudy
11:51 AM 25.0 °F 20.7 °F 12.9 °F 60% 30.45 in 10.0 mi West 3.5 mph - N/A   Clear
12:51 PM 28.0 °F - 14.0 °F 56% 30.43 in 10.0 mi Calm Calm - N/A   Clear
1:51 PM 28.0 °F 21.7 °F 15.1 °F 58% 30.42 in 10.0 mi SW 5.8 mph - N/A   Clear
2:51 PM 28.9 °F 23.9 °F 16.0 °F 58% 30.40 in 10.0 mi SW 4.6 mph - N/A   Clear
3:51 PM 30.0 °F 23.2 °F 16.0 °F 56% 30.40 in 10.0 mi SSW 6.9 mph - N/A   Clear
4:51 PM 28.9 °F 21.9 °F 17.1 °F 61% 30.41 in 10.0 mi SSW 6.9 mph - N/A   Clear
5:51 PM 28.0 °F - 17.1 °F 63% 30.42 in 10.0 mi Calm Calm - N/A   Clear
6:51 PM 28.9 °F 21.9 °F 15.1 °F 56% 30.41 in 10.0 mi South 6.9 mph - N/A   Clear
7:51 PM 28.9 °F - 12.9 °F 51% 30.43 in 10.0 mi Calm Calm - N/A   Clear
8:51 PM 27.0 °F 23.0 °F 15.1 °F 61% 30.46 in 10.0 mi West 3.5 mph - N/A   Clear
9:51 PM 27.0 °F 21.6 °F 14.0 °F 58% 30.49 in 10.0 mi SW 4.6 mph - N/A   Partly Cloudy
10:51 PM 27.0 °F - 14.0 °F 58% 30.50 in 10.0 mi Calm Calm - N/A   Mostly Cloudy
11:51 PM 28.9 °F - 16.0 °F 58% 30.50 in 10.0 mi Calm Calm - N/A   Overcast